Weather Roundup
Issued by NWS Chicago, IL

Home | Current Version | Previous Version | Text Only | Print | Product List | Glossary On
Versions: 1 2 3 4 5 6 7 8 9 10 11 12 13 14 15 16 17 18 19 20 21 22 23 24 25 26 27 28 29 30 31 32 33 34 35 36 37 38 39 40 41 42 43 44 45 46 47 48 49 50
000
NZUS59 KLOT 210406
HRRLOT

CHICAGO AREA WEATHER ROUNDUP
NATIONAL WEATHER SERVICE CHICAGO/ROMEOVILLE IL
1100 PM CDT MON OCT 20 2014

NOTE: "FAIR" INDICATES FEW OR NO CLOUDS BELOW 12,000 FEET WITH NO
SIGNIFICANT WEATHER AND/OR OBSTRUCTIONS TO VISIBILITY.

* THESE STATIONS ARE NOT UNDER NWS QUALITY CONTROL. THEY ALSO MAY NOT
  REPORT WEATHER SUCH AS PRECIPITATION OR FOG.

ILZ005-006-012>014-019>023-210500-
NORTHEAST ILLINOIS

CITY           SKY/WX    TMP DP  RH WIND       PRES   REMARKS
OHARE          MOCLDY    52  41  66 N9        30.00R
MIDWAY         MOCLDY    55  43  63 N12       29.99S
AURORA         CLOUDY    52  40  63 N6        30.01S
LANSING*       CLOUDY    52  44  73 N5        29.99S
JOLIET*        CLOUDY    53  41  64 N6        30.00S
WAUKEGAN       MOCLDY    49  42  77 NW3       30.00R
DUPAGE AIRPORT CLOUDY    52  41  66 N9        30.00S
WHEELING       CLOUDY    54  42  64 N7        30.01S
KANKAKEE*      CLOUDY    52  49  88 CALM      30.01R
MORRIS*        CLOUDY    52  44  75 CALM      30.00R
LEWIS AIRPORT* CLOUDY    53  41  63 N6        30.00S
NORTHERLY IS     N/A     54  42  64 MISG        N/A
$$

WIZ051-052-058>065-066-070>072-210500-
SOUTHEAST WISCONSIN

CITY           SKY/WX    TMP DP  RH WIND       PRES   REMARKS
MILWAUKEE      MOCLDY    51  42  71 N7        30.01S
KENOSHA*       CLOUDY    51  43  74 NW5       30.01R
RACINE*        CLOUDY    50  43  77 N5        30.02S
BURLINGTON     CLOUDY    49  41  74 N3        30.01S
WAUKESHA       CLOUDY    46  41  81 NW6       30.02S
WEST BEND      CLOUDY    46  41  81 NW5       30.02S
$$

INZ001>003-010>013-019-020-210500-
NORTHWEST INDIANA

CITY           SKY/WX    TMP DP  RH WIND       PRES   REMARKS
GARY*          CLOUDY    55  44  66 N12G17    29.99S
MICHIGAN CITY* NOT AVBL
RENSSELAER*    NOT AVBL
VALPARAISO     LGT RAIN  51  45  79 N6        29.99R
$$

LMZ740>746-210500-
SOUTHERN LAKE MICHIGAN

STATION/POSITION TIME  SKY/WX   TEMP WIND        PRES    VSBY
                                AIR  DIR/SP/G
                 (UTC)          (F)  (DEG/KT/KT) (MB)    (MI)
HARRISON CRIB    0400            54  340/ 18/ 20   N/A
BURNHAM HARBOR   0400            54  320/ 11/ 16   N/A
CALUMET HARBOR   0400            54  330/  7/ 13 1014.5R
BURNS HARBOR     NOT AVBL
MICHIGAN CITY    0400            52  340/ 20/ 22   N/A
$$

ABBREVIATIONS USED IN REMARKS
   TC - TEMPERATURE IN CELSIUS
  WCI - WIND CHILL INDEX
   HX - HEAT INDEX
  VSB - VISIBILITY
$$


USA.gov is the U.S. government's official web portal to all federal, state and local government web resources and services.